View from above orbital plane
|
View from above satellite
|
Ground track
|
The orbit data is extracted from the following two-line orbital elements,
1 17590U 87027B 21112.29504299 -.00000104 00000-0 -28182-4 0 9995
2 17590 71.0027 71.0005 0006746 304.8408 55.2080 14.16795199763136
Epoch (UTC): | 22 April 2021 07:04:51 |
Eccentricity: | 0.0006746 |
inclination: | 71.0027° |
perigee height: | 831 km |
apogee height: | 841 km |
right ascension of ascending node: | 71.0005° |
argument of perigee: | 304.8408° |
revolutions per day: | 14.16795199 |
mean anomaly at epoch: | 55.2080° |
orbit number at epoch: | 76313 |
The dashed part of the orbit path shows where the satellite is in the earth's shadow,
|
|